Weather History for Santa Maria, CA

Change the Weather History Date:

Tuesday, May 21, 2013

  Actual Average Record
Temperature  
Mean Temperature 62 °F 58 °F  
Max Temperature 77 °F 69 °F 90 °F (1911)
Min Temperature 46 °F 48 °F 36 °F (1933)
Degree Days  
Heating Degree Days 3 7  
Month to date heating degree days 71 157  
Since 1 July heating degree days 2246 2616  
Cooling Degree Days 0 0  
Month to date cooling degree days 9 0  
Year to date cooling degree days 11 6  
Growing Degree Days 14 (Base 50)    
Moisture  
Dew Point 48 °F    
Average Humidity 65    
Maximum Humidity 89    
Minimum Humidity 41    
Precipitation  
Precipitation 0.00 in 0.01 in 1.29 in (2006)
Month to date precipitation 0.04 0.26  
Year to date precipitation 2.49 9.62  
Since 1 July precipitation 6.22 13.86  
Sea Level Pressure  
Sea Level Pressure 29.94 in    
Wind  
Wind Speed 11 mph (West)    
Max Wind Speed 28 mph    
Max Gust Speed 33 mph    
Visibility 6 miles    
Events      
T = Trace of Precipitation, MM = Missing Value Source: NWS Daily Summary

Daily Weather History Graph

Daily Weather History Graph

Search for Another Location

Airport:

Trip Planner

Search our weather history database for the weather conditions in past years. The results will help you decide how hot, cold, wet, or windy it might be!

Date:

Astronomy

May. 21, 2013 Rise Set
Actual Time 5:54 AM PDT 8:03 PM PDT
Civil Twilight 5:25 AM PDT 8:31 PM PDT
Nautical Twilight 4:50 AM PDT 9:06 PM PDT
Astronomical Twilight 4:13 AM PDT 9:44 PM PDT
Moon 4:29 PM PDT (5/21) 3:16 AM PDT (5/21)
Length of Visible Light 15h 05m
Length of Day
14h 08m
Waxing Gibbous, 85% of the Moon is Illuminated
May 21
Waxing Gibbous
May 24
Full
May 31
Last Quarter
Jun 8
New
Jun 16
First Quarter

Hourly Weather History & Observations

Time (PDT) Temp. Dew Point Humidity Pressure Visibility Wind Dir Wind Speed Gust Speed Precip Events Conditions
12:51 AM 53.1 °F 48.9 °F 86% 29.95 in 6.0 mi Calm Calm - N/A   Clear
1:51 AM 53.1 °F 48.0 °F 83% 29.93 in 7.0 mi Calm Calm - N/A   Clear
2:51 AM 53.1 °F 46.9 °F 80% 29.91 in 7.0 mi Calm Calm - N/A   Clear
3:51 AM 50.0 °F 46.9 °F 89% 29.91 in 5.0 mi Calm Calm - N/A   Clear
4:08 AM 51.8 °F 48.2 °F 88% 29.90 in 5.0 mi Calm Calm - N/A   Scattered Clouds
4:18 AM 51.8 °F 48.2 °F 88% 29.90 in 5.0 mi Calm Calm - N/A   Mostly Cloudy
4:51 AM 52.0 °F 48.0 °F 86% 29.92 in 5.0 mi Calm Calm - N/A   Overcast
5:05 AM 51.8 °F 48.2 °F 88% 29.92 in 5.0 mi Calm Calm - N/A   Overcast
5:51 AM 51.1 °F 48.9 °F 92% 29.93 in 4.0 mi Calm Calm - N/A   Overcast
6:51 AM 53.1 °F 50.0 °F 89% 29.96 in 3.0 mi SE 5.8 mph - N/A   Overcast
7:11 AM 53.6 °F 50.0 °F 88% 29.95 in 5.0 mi SSE 6.9 mph - N/A   Overcast
7:51 AM 55.0 °F 51.1 °F 86% 29.96 in 6.0 mi South 9.2 mph - N/A   Scattered Clouds
8:51 AM 59.0 °F 51.1 °F 75% 29.97 in 6.0 mi SSE 6.9 mph - N/A   Haze
9:51 AM 64.9 °F 51.1 °F 61% 29.97 in 7.0 mi Variable 4.6 mph - N/A   Mostly Cloudy
10:51 AM 69.1 °F 48.9 °F 49% 29.96 in 8.0 mi Variable 5.8 mph - N/A   Mostly Cloudy
11:51 AM 73.9 °F 48.0 °F 40% 29.95 in 10.0 mi West 8.1 mph - N/A   Mostly Cloudy
12:51 PM 69.1 °F 50.0 °F 51% 29.95 in 7.0 mi WNW 19.6 mph - N/A   Mostly Cloudy
1:51 PM 66.9 °F 50.0 °F 54% 29.96 in 8.0 mi WNW 23.0 mph 29.9 mph N/A   Scattered Clouds
2:51 PM 64.9 °F 48.9 °F 56% 29.95 in 7.0 mi WNW 26.5 mph 32.2 mph N/A   Scattered Clouds
3:51 PM 64.9 °F 46.9 °F 52% 29.94 in 6.0 mi WNW 21.9 mph 27.6 mph N/A   Haze
4:51 PM 64.0 °F 45.0 °F 50% 29.92 in 7.0 mi WNW 26.5 mph 32.2 mph N/A   Clear
5:51 PM 61.0 °F 45.0 °F 56% 29.91 in 8.0 mi WNW 21.9 mph 33.4 mph N/A   Clear
6:51 PM 57.9 °F 45.0 °F 62% 29.92 in 8.0 mi WNW 21.9 mph 28.8 mph N/A   Clear
7:51 PM 55.0 °F 45.0 °F 69% 29.93 in 7.0 mi WNW 16.1 mph - N/A   Clear
8:51 PM 53.1 °F 45.0 °F 74% 29.94 in 8.0 mi West 15.0 mph - N/A   Clear
9:51 PM 52.0 °F 45.0 °F 77% 29.95 in 7.0 mi West 12.7 mph - N/A   Clear
10:51 PM 51.1 °F 45.0 °F 80% 29.94 in 7.0 mi West 5.8 mph - N/A   Clear
11:51 PM 48.0 °F 44.1 °F 86% 29.94 in 6.0 mi Calm Calm - N/A   Clear